Wind_Speed
10 8 5 2 2 4 3 7 3 2 3 3 2 3 3 2 7 4 1 16 30 34 31 30 29 28 26 24 24 25 26 27 27 26 25 23 21 20 19 18 18 17 16 16 16 15 14 12 12
6 2 2 2 4 3 5 5 6 4 2 4 3 2 2 2 3 10 13 18 33 35 33 32 30 28 27 25 24 25 25 26 25 24 23 22 20 19 18 18 18 18 16 14 13 12 12 11 10
5 1 4 4 4 8 5 6 9 2 4 2 3 1 4 8 6 2 10 29 36 34 35 34 31 29 27 26 25 25 25 24 24 23 23 21 19 18 17 17 17 16 15 13 11 10 9 8 7
1 4 4 4 10 7 8 7 7 4 1 3 1 5 7 7 4 10 26 35 38 31 35 35 33 30 28 27 25 25 25 24 23 22 20 19 18 17 16 15 15 14 13 11 9 7 7 6 4
2 3 2 4 10 5 5 6 2 3 2 3 4 3 6 4 10 25 34 38 37 28 34 35 33 32 29 27 25 24 24 23 22 21 19 17 16 15 14 14 13 12 11 9 7 6 5 4 3
2 3 2 10 8 8 6 7 3 3 5 6 4 5 5 6 15 27 28 34 30 33 29 35 32 30 29 27 24 23 23 23 22 20 18 17 15 13 13 12 11 10 9 7 6 5 5 5 6
5 4 5 4 13 13 2 9 8 6 6 7 8 4 4 7 14 23 27 28 25 26 29 35 33 30 28 27 25 22 22 22 21 19 17 15 14 12 10 9 8 7 7 6 6 6 7 7 8
5 4 4 7 8 6 5 4 4 6 10 7 14 8 6 9 19 24 29 27 20 19 29 34 33 31 29 27 24 22 21 20 20 18 16 14 12 10 9 8 7 6 6 6 6 7 8 10 11
4 2 6 6 7 3 4 4 2 6 5 3 11 5 12 31 25 26 26 21 20 19 21 31 33 30 29 27 25 21 19 18 18 17 15 13 12 10 8 6 5 5 5 6 7 7 9 10 12
4 4 7 6 5 2 4 3 5 5 1 1 2 5 28 36 30 25 25 23 23 23 23 24 30 29 30 28 26 22 19 17 16 16 15 14 11 9 6 5 5 5 5 6 8 9 11 12 14
4 5 8 5 3 4 5 3 4 4 5 6 13 19 21 21 24 23 23 26 24 22 22 21 22 23 29 29 26 23 20 17 16 15 15 14 12 10 8 7 6 6 7 8 9 11 13 14 14
4 5 6 3 3 3 4 5 7 6 7 6 12 26 21 20 18 22 23 26 29 27 23 22 22 24 27 26 26 24 21 19 17 16 16 15 13 11 9 7 6 8 10 11 12 14 14 14 14
4 3 5 5 7 9 4 7 7 13 10 10 11 15 23 23 23 30 29 29 35 34 32 28 25 26 27 25 24 24 23 21 19 18 17 16 16 15 11 9 8 11 13 14 14 14 14 16 17
3 6 6 5 5 5 1 6 5 10 7 8 22 23 24 25 22 19 19 20 22 21 30 32 27 26 24 22 22 23 23 21 19 18 17 16 15 15 14 12 9 10 13 14 15 14 15 18 20
5 7 8 6 4 6 8 8 20 18 4 7 21 25 18 17 20 18 18 18 21 17 21 25 28 26 23 20 21 22 21 20 19 17 17 15 15 14 14 15 14 13 12 13 12 10 15 18 19
4 2 4 3 10 7 8 18 6 7 6 12 25 22 9 4 10 18 23 22 19 18 21 21 13 21 22 21 20 22 21 20 19 17 16 17 15 14 14 15 14 10 8 9 10 12 15 14 13
3 3 6 3 10 7 14 7 8 8 6 11 20 17 13 10 10 17 26 27 25 25 19 16 12 9 15 20 21 20 20 19 18 19 17 17 18 18 16 14 12 12 12 13 15 13 14 15 15
5 3 3 8 6 17 7 9 9 4 10 13 17 15 15 15 10 18 26 32 30 28 24 21 15 16 13 8 20 23 19 17 18 17 15 15 18 21 19 17 16 14 14 11 11 13 13 13 14
10 10 7 7 6 5 14 1 12 8 3 8 12 14 15 14 8 18 25 32 30 26 25 23 18 13 9 11 30 23 20 18 9 11 6 3 5 6 13 15 11 12 10 9 8 9 13 15 12
8 8 12 13 14 6 4 14 11 6 5 11 11 13 13 13 11 11 18 28 35 35 33 33 28 27 24 12 16 24 22 19 12 12 8 5 4 6 8 7 7 5 5 6 9 11 11 10 9
8 10 9 8 12 6 4 1 5 6 4 6 8 19 15 21 17 11 15 22 29 31 30 33 20 16 20 17 21 26 28 17 11 8 3 5 4 3 2 2 5 9 9 9 11 9 9 8 10
10 7 13 11 6 4 8 4 7 6 7 7 8 11 17 16 13 12 9 15 22 30 26 27 16 17 18 20 25 31 14 4 7 13 15 13 12 11 10 9 11 14 14 15 14 12 11 10 13
6 4 8 8 9 6 4 3 11 8 6 7 8 9 15 19 18 17 15 22 26 18 19 17 21 14 13 17 26 11 13 17 16 17 17 19 20 20 19 20 18 17 17 16 16 16 16 15 13
3 4 8 6 2 3 8 8 4 7 12 5 6 9 12 15 15 17 18 16 17 19 18 16 23 13 14 18 10 15 22 21 19 21 22 23 23 22 20 18 17 17 17 17 15 13 13 13 12
7 4 5 5 5 5 7 5 7 17 12 9 10 15 13 16 14 13 13 13 18 19 16 14 16 14 18 21 22 22 23 22 24 23 23 24 24 22 19 16 15 16 15 14 13 13 13 13 14
4 8 3 4 6 4 5 8 5 11 10 12 13 16 15 16 15 15 15 16 20 22 25 29 28 29 29 28 29 29 27 28 25 25 22 23 20 18 15 16 16 17 15 15 14 14 14 12 14
7 5 5 4 5 3 5 4 3 11 10 8 11 14 14 11 9 14 16 22 25 24 23 33 33 30 30 32 32 31 29 27 25 21 19 17 14 15 16 17 17 17 16 15 15 16 16 15 15
5 6 7 4 6 6 3 3 7 10 13 10 10 10 11 14 17 17 16 23 27 28 33 34 35 35 32 32 30 29 26 23 21 18 18 17 16 15 17 18 17 17 17 18 17 18 16 16 15
3 2 9 3 3 5 4 4 6 12 10 13 11 14 17 18 20 18 16 22 27 30 34 34 34 35 32 30 28 26 24 22 21 20 18 17 16 15 16 17 17 18 19 19 19 16 16 14 14
3 4 6 1 2 0 4 3 4 11 11 17 16 17 18 20 19 18 21 25 27 29 29 32 34 34 31 29 27 26 24 22 21 19 16 14 16 15 16 16 18 19 20 19 20 17 13 13 15
Wind_Direction
289 305 313 43 60 71 228 245 264 342 153 171 285 167 190 299 153 212 342 154 164 160 164 162 159 154 149 145 146 146 144 143 142 141 140 140 141 139 137 138 137 133 131 130 129 126 124 121 123
322 349 94 84 130 174 237 225 231 196 321 150 160 148 236 219 247 114 125 169 169 165 164 164 163 157 151 149 151 150 148 147 146 145 144 143 142 142 143 145 145 140 138 136 133 132 131 130 129
318 178 110 154 182 204 221 181 217 10 101 136 235 57 23 320 345 160 159 166 169 166 168 165 166 159 155 153 154 155 153 151 149 149 148 147 147 149 151 152 152 149 146 146 144 142 141 140 143
178 21 24 153 223 243 178 167 122 116 339 341 338 81 328 295 233 176 169 168 169 165 170 168 167 164 160 157 157 159 159 156 155 154 154 153 153 154 155 155 159 160 158 156 156 156 159 159 163
127 61 163 222 246 238 198 260 45 129 131 32 332 279 303 25 136 149 153 161 167 164 170 170 170 167 163 161 161 162 164 163 161 160 161 161 160 159 159 160 164 166 173 175 176 182 193 200 221
83 103 126 219 243 242 216 170 202 170 246 139 134 157 262 109 130 141 149 158 169 164 167 169 172 170 166 164 164 165 170 172 170 169 167 167 168 166 166 167 170 175 182 187 201 219 238 250 271
137 117 212 215 238 254 168 163 210 163 200 221 173 118 261 118 134 138 145 161 168 164 165 169 172 173 171 169 169 171 176 178 180 177 175 173 171 171 172 176 181 191 202 210 226 245 260 273 282
134 121 212 218 209 278 167 216 230 157 221 200 173 180 213 138 152 139 151 159 162 168 172 172 174 175 174 173 175 176 180 183 185 186 183 181 176 175 176 182 195 206 221 235 247 262 275 283 288
127 180 223 213 191 203 29 82 210 228 173 198 182 158 142 141 145 140 142 155 166 171 176 176 174 177 177 177 179 181 184 188 190 193 192 191 187 186 188 198 212 233 249 266 275 282 286 290 293
167 193 216 200 192 222 46 73 325 2 335 320 137 121 150 149 152 156 161 169 176 173 174 176 180 179 179 179 181 185 188 193 196 200 200 203 201 207 210 217 235 262 271 285 292 291 291 293 299
194 208 226 268 299 308 128 345 292 307 233 168 204 153 159 154 161 167 173 170 177 177 170 175 177 181 181 184 183 186 194 197 203 208 210 213 214 219 229 242 248 261 282 295 302 303 298 299 299
264 218 246 273 324 326 75 343 312 251 227 208 218 168 152 164 176 174 174 179 176 176 177 178 180 181 183 188 188 190 197 204 208 212 213 218 224 230 238 254 268 277 284 290 298 307 309 303 305
236 274 281 288 277 276 140 256 244 273 272 263 191 189 166 176 185 185 177 178 180 179 184 182 181 184 188 195 196 199 202 208 211 215 216 218 226 228 232 245 272 281 284 285 295 304 305 299 300
302 284 271 270 255 275 232 254 207 252 167 288 173 189 179 186 183 168 165 170 176 177 181 180 180 186 194 202 206 208 210 212 215 217 219 223 228 235 238 242 269 279 269 278 283 292 297 296 292
258 308 288 230 170 231 181 262 232 242 255 243 197 192 188 185 171 179 159 155 168 170 175 182 181 184 195 202 210 213 215 217 216 219 220 222 228 234 236 241 258 281 273 270 280 298 301 293 292
304 223 248 254 169 232 142 256 258 235 195 255 198 185 148 125 146 133 142 149 146 134 161 177 179 199 201 201 209 215 218 218 218 218 221 226 229 236 238 241 253 268 273 275 288 297 299 299 296
309 248 218 323 192 184 192 251 252 227 231 209 176 168 146 120 110 118 146 146 149 148 145 156 168 180 224 227 222 223 225 230 235 234 236 248 250 248 247 251 259 269 278 289 291 300 302 300 303
209 220 279 196 218 206 216 236 287 307 168 184 172 165 151 141 137 124 131 147 146 151 159 166 178 192 208 292 269 240 231 236 259 248 247 254 254 252 246 247 254 270 284 291 304 305 306 300 299
305 310 317 317 230 211 225 195 257 283 118 152 154 152 151 134 130 132 132 140 144 150 157 162 178 196 216 266 335 250 225 216 208 174 169 269 268 239 241 245 252 275 292 302 328 342 325 313 306
270 288 286 291 266 229 191 215 231 231 216 178 163 148 132 133 135 141 153 149 160 171 179 184 188 189 182 244 312 253 245 233 221 187 180 206 216 217 234 254 277 298 312 332 340 343 332 317 334
249 232 259 256 322 269 136 271 196 227 244 168 195 156 150 149 153 164 176 179 180 178 182 197 192 154 140 172 216 254 235 229 221 215 150 87 101 113 218 194 287 308 342 7 9 359 350 332 336
255 255 241 259 296 241 171 210 215 191 189 171 158 153 157 165 164 158 178 203 197 201 203 222 221 181 194 172 216 253 227 155 77 102 97 81 53 51 58 58 61 63 58 58 57 46 43 42 26
242 254 246 252 265 331 220 99 202 145 165 189 173 158 159 167 165 173 187 200 199 175 176 186 179 198 174 205 255 198 134 122 121 103 90 79 82 83 79 75 69 64 64 64 55 49 48 50 48
267 282 251 226 174 251 234 169 228 168 186 160 140 158 173 161 171 176 176 167 158 156 147 155 187 187 220 234 189 129 113 117 105 96 93 88 84 81 77 75 71 65 59 55 51 48 45 44 47
198 85 184 190 190 220 196 155 213 197 146 156 156 165 177 168 164 161 156 163 157 161 161 171 176 149 135 122 111 111 109 110 108 103 99 92 86 84 82 77 70 64 59 52 45 44 44 43 43
155 155 269 125 168 178 181 197 240 157 151 155 152 165 163 173 163 158 148 145 135 129 128 129 130 118 112 109 103 106 109 106 105 102 98 92 86 85 83 74 70 63 53 45 39 42 47 48 47
141 174 225 297 244 123 189 244 74 136 134 148 142 148 164 155 119 121 126 131 126 125 118 122 118 111 110 107 107 105 106 108 102 99 91 84 84 78 80 75 68 57 49 44 43 52 56 57 52
171 74 230 219 150 168 244 149 167 147 160 162 137 118 122 117 112 115 116 122 118 115 117 120 119 115 112 111 109 106 105 101 100 95 88 86 85 87 80 70 61 54 52 52 55 57 56 54 47
124 208 223 253 175 165 132 215 216 165 172 153 117 120 128 120 122 121 110 110 111 111 112 112 112 115 112 108 107 104 101 97 93 88 86 83 83 81 77 72 64 57 52 50 50 47 42 41 36
126 241 280 233 115 249 133 266 43 156 150 119 123 124 125 119 117 115 112 115 111 108 108 109 115 114 114 112 108 104 101 98 92 88 86 87 87 91 84 74 64 58 49 43 38 35 34 32 30
Height
762 763 765 767 792 799 803 786 757 753 752 744 739 746 748 741 746 773 737 743 746 750 755 760 763 765 767 770 773 775 777 780 781 783 786 788 789 791 792 793 795 797 798 798 799 800 801 802 802
762 762 764 774 800 810 797 769 762 750 741 742 742 745 746 745 730 732 740 747 749 752 755 760 764 766 767 770 775 777 779 781 783 784 785 787 790 792 793 794 795 796 798 801 801 802 802 802 803
762 762 769 783 798 796 786 763 756 748 743 744 745 739 742 744 722 726 732 742 752 755 757 760 765 767 769 771 775 778 780 782 785 787 787 787 789 792 794 795 796 797 798 801 802 803 803 803 803
762 764 772 787 786 774 763 754 746 749 743 740 740 749 740 736 734 728 735 741 752 755 758 760 764 767 769 772 775 778 780 782 784 787 789 790 790 792 794 796 798 799 800 801 803 804 804 804 803
762 771 787 787 775 760 753 744 741 748 747 745 741 747 745 735 737 734 739 744 752 756 759 761 765 767 770 773 776 779 782 784 785 787 789 792 793 794 796 797 799 801 802 802 803 804 804 805 804
769 775 794 782 772 749 748 747 745 748 746 748 748 746 743 736 740 738 746 748 757 757 761 761 767 769 771 774 778 780 782 784 786 788 790 792 795 797 798 799 800 802 802 803 804 804 805 805 805
770 781 784 775 762 753 747 743 747 750 744 748 735 744 730 735 742 741 743 754 761 761 761 760 766 770 773 775 777 780 783 785 788 790 791 793 795 798 800 802 803 803 804 804 804 805 805 805 804
763 772 773 769 760 761 737 738 735 744 739 718 728 741 743 731 743 743 746 756 762 762 763 762 765 769 773 776 779 781 784 786 789 791 794 796 797 799 800 802 803 804 804 804 804 804 804 805 803
755 774 776 761 758 752 738 742 727 720 725 722 722 721 719 729 741 745 750 757 762 763 764 763 765 770 774 777 780 784 786 788 790 793 795 798 799 800 800 803 804 805 805 806 805 804 804 803 803
760 773 760 748 744 742 745 736 731 729 732 728 728 723 727 725 735 742 747 754 758 759 762 765 766 769 773 777 781 784 788 791 793 796 797 799 801 802 803 803 804 806 805 806 806 804 803 802 802
753 761 747 742 738 740 745 742 729 734 739 724 727 728 729 730 735 741 746 748 755 760 762 765 769 772 774 778 780 784 788 791 794 796 799 801 801 803 804 804 804 804 806 805 805 804 803 801 799
756 746 745 741 737 741 743 741 737 730 730 716 717 714 718 732 739 739 742 747 751 758 762 765 769 773 777 781 782 784 787 791 793 795 797 800 802 803 804 805 805 805 805 804 804 803 802 800 798
754 748 742 740 740 741 742 744 741 731 721 718 718 725 720 728 732 732 736 744 749 752 759 766 770 775 779 781 783 784 785 787 790 793 794 796 798 799 800 802 803 804 803 803 803 801 800 798 796
750 751 743 739 742 744 742 738 735 719 715 714 712 719 719 723 726 735 739 745 751 755 759 764 769 775 779 781 782 784 786 786 789 790 793 794 795 798 800 801 802 799 799 800 800 799 798 796 793
747 752 743 739 740 743 735 740 723 710 718 720 716 712 719 724 729 733 737 744 749 759 765 771 771 773 778 779 782 784 786 788 787 789 792 793 795 796 797 799 800 800 799 798 797 797 795 792 791
750 748 753 736 737 735 734 738 715 710 713 713 710 715 726 727 729 734 738 745 752 759 764 772 775 777 778 779 782 785 787 787 788 788 790 792 794 796 798 797 797 798 798 796 796 795 792 789 787
757 759 750 737 727 729 730 728 710 706 709 709 706 715 723 730 735 736 739 745 749 755 763 767 770 773 780 784 784 786 788 790 789 789 790 792 794 795 797 798 798 798 797 795 794 793 790 788 786
760 757 746 741 729 723 730 727 713 704 704 707 710 718 721 726 736 736 739 743 748 753 757 762 767 770 777 784 790 790 790 791 791 791 790 790 790 791 793 795 795 796 795 792 791 792 789 787 786
755 757 756 743 725 728 726 727 718 709 707 711 713 721 725 731 738 740 740 743 747 752 753 759 764 767 773 781 788 791 788 792 789 789 792 790 788 788 791 794 794 793 794 792 791 790 789 786 785
759 760 757 742 727 729 725 724 715 710 708 709 711 721 727 738 740 742 743 743 744 745 750 754 758 760 755 775 774 784 784 785 787 787 788 790 789 789 790 792 792 792 793 791 790 789 788 787 786
757 757 755 751 735 720 722 725 720 710 706 706 707 713 722 726 738 743 743 741 742 742 746 751 752 759 762 768 781 785 766 783 778 783 786 785 787 788 790 789 790 791 790 790 790 790 789 787 786
759 746 745 744 746 748 716 749 723 714 713 707 711 718 719 728 732 736 738 739 739 739 746 750 756 762 766 765 767 776 770 768 774 774 782 786 786 787 790 791 790 791 791 792 791 792 790 787 787
750 741 744 741 746 748 723 735 710 714 719 713 714 712 718 720 727 733 735 733 737 745 751 755 759 765 764 771 775 755 763 770 783 783 782 786 786 791 793 793 792 793 792 794 792 792 791 791 790
739 745 742 740 746 756 725 725 727 719 705 711 713 711 712 716 722 726 732 739 744 750 754 758 764 769 773 777 772 767 766 778 782 785 789 792 794 796 795 795 796 797 796 796 795 795 794 793 791
745 755 749 752 753 747 712 720 714 687 697 700 708 713 713 711 719 726 732 737 745 751 754 760 766 774 774 772 772 775 776 782 785 791 798 798 798 799 799 799 798 797 798 797 797 796 796 795 793
747 753 739 736 741 730 708 718 702 682 686 687 695 702 712 714 716 723 732 737 743 748 755 763 768 771 772 775 778 779 787 789 799 796 804 800 800 800 801 799 799 798 800 800 799 797 796 796 794
748 749 740 735 718 724 719 695 685 683 689 691 699 703 713 715 721 727 734 740 743 753 758 758 765 771 775 778 782 788 792 797 799 802 799 798 800 801 803 802 801 802 801 801 800 798 798 796 796
730 736 739 739 731 726 715 699 709 697 691 694 701 712 720 720 723 730 737 745 751 756 760 766 770 776 782 784 789 792 796 798 799 802 802 803 804 805 805 802 804 806 805 803 802 800 799 797 797
735 744 733 721 712 725 728 710 682 682 684 691 708 710 714 719 724 733 743 753 757 762 765 771 777 780 784 788 792 795 798 799 802 804 806 806 806 807 807 808 809 808 806 804 802 802 800 801 800
719 721 716 715 706 711 713 713 677 678 683 695 706 710 716 718 728 738 747 758 762 766 773 777 783 786 790 793 796 799 802 804 806 809 810 811 811 812 811 811 809 807 807 806 804 804 804 801 799